Regional Weather Roundup
Issued by NWS

Home | Current Version | Previous Version | Text Only | Print | Product List | Glossary Off
Versions: 1 2 3 4 5 6 7 8 9 10 11 12 13 14 15 16 17 18 19 20 21 22 23 24 25 26 27 28 29 30 31 32 33 34 35 36 37 38 39 40 41 42 43 44 45 46 47 48 49 50

467
ASUS43 KMKX 090700
RWRWI

WISCONSIN REGIONAL WEATHER ROUNDUP
NATIONAL WEATHER SERVICE MILWAUKEE/SULLIVAN WI
100 AM CST TUE FEB 09 2016

NOTE: "FAIR" INDICATES FEW OR NO CLOUDS BELOW 12,000 FEET WITH NO
SIGNIFICANT WEATHER AND/OR OBSTRUCTIONS TO VISIBILITY.

WIZ001-002-006>008-014>016-023>028-090800-
NORTHWEST WISCONSIN

CITY           SKY/WX    TMP DP  RH WIND       PRES   REMARKS
SUPERIOR ARPT  CLOUDY     7  -2  67 N10G17    30.02S WCI  -8
ASHLAND        CLOUDY    11   6  81 NW10      29.91S HAZE    WCI  -3
HAYWARD        CLOUDY     7   0  73 VRB5      29.91R HAZE    WCI  -2
SIREN          CLOUDY     7  -1  70 N14G20    29.98S WCI -10
CUMBERLAND     MOCLDY     5  -2  72 N17       29.92S WCI -14
RICE LAKE      MOCLDY     7   0  73 NW9G17    29.94S WCI  -7
CHETEK         CLOUDY     6   0  74 MISG      29.92S
LADYSMITH      FLURRIES   8   3  80 NW12      29.88S WCI  -7
EAU CLAIRE     NOT AVBL
MENOMONIE      CLOUDY    11   2  66 NW17      29.95R WCI  -7
NEW RICHMOND   MOCLDY     9   0  66 N17G25    29.97S WCI -10
OSCEOLA        CLOUDY    10   1  68 NW14G21   30.01S WCI  -6
$$

WIZ003>005-009-010-017-018-090800-
NORTH CENTRAL WISCONSIN

CITY           SKY/WX    TMP DP  RH WIND       PRES   REMARKS
MANITOWISH WTR LGT SNOW  10   7  85 N9        29.75F WCI  -3
ARBOR VITAE    LGT SNOW  11   8  85 NW7       29.74S WCI   1
WOODRUFF       LGT SNOW  11   8  85 NW7       29.74S WCI   1
RHINELANDER    LGT SNOW   8   4  83 NW7       29.73S FOG     WCI  -3
EAGLE RIVER    FLURRIES  10   4  77 N9        29.72S WCI  -3
LAND O LAKES   LGT SNOW  11   7  84 N7        29.73S WCI   0
PHILLIPS       FLURRIES   7   3  82 NW6       29.79S WCI  -3
TOMAHAWK       FLURRIES   7   2  82 NW8       29.77S WCI  -6
MEDFORD        FLURRIES   7   3  82 NW12      29.79S WCI  -8
MERRILL        CLOUDY    10   4  77 NW8       29.78S WCI  -3
$$

WIZ029-030-035-036-043>047-090800-
CENTRAL WISCONSIN

CITY           SKY/WX    TMP DP  RH WIND       PRES   REMARKS
WAUSAU         CLOUDY    11   4  73 NW10      29.76S WCI  -3
MOSINEE        CLEAR     10   7  85 NW7       29.78F WCI   0
MARSHFIELD     CLOUDY     9   2  73 NW17      29.79S HAZE    WCI  -9
STEVENS POINT  FLURRIES   9   4  79 NW6       29.79S WCI   0
WAUPACA        PTCLDY    17  10  74 NW8       29.78S WCI   6
WAUTOMA        NOT AVBL
WISC RAPIDS    PTCLDY    10   2  69 NW13      29.82S WCI  -5
CAMP DOUGLAS   DRIZZLE   10   9  92 NW14      29.83S WCI  -5
$$

WIZ011>013-019>022-031-037>040-048>050-090800-
NORTHEAST WISCONSIN

CITY           SKY/WX    TMP DP  RH WIND       PRES   REMARKS
ANTIGO         FLURRIES   9   5  84 NW9       29.72S WCI  -4
SHAWANO        FLURRIES  18  10  72 NW7       29.77S WCI   8
OCONTO         CLOUDY    16   8  69 N9        29.75F WCI   5
STURGEON BAY   MOCLDY    16   7  67 N14       29.74F WCI   1
GREEN BAY      LGT SNOW  17  10  74 NW12      29.75S WCI   4
MANITOWOC      NOT AVBL
APPLETON       PTCLDY    18   9  68 W9        29.73S WCI   6
CLINTONVILLE   FLURRIES  18  10  73 NW9       29.76F WCI   6
OSHKOSH        LGT SNOW  16  10  77 NW15      29.75S WCI   1
$$

WIZ032>034-041-042-053>061-090800-
SOUTHWEST WISCONSIN

CITY           SKY/WX    TMP DP  RH WIND       PRES   REMARKS
LA CROSSE      CLOUDY    12   3  67 N14       29.91S WCI  -3
SPARTA         FLURRIES  11   6  77 NW8       29.89R WCI   0
VIROQUA        CLOUDY    11   6  79 N16G22    29.82S WCI  -6
BOSCOBEL       LGT SNOW  15   9  76 N6G16     29.87S WCI   6
PRAIRIE DU CHI MIX PCPN  14   8  76 NW7       29.89S WCI   4
PLATTEVILLE    CLOUDY    14  11  88 NW14      29.82R WCI  -1
$$

WIZ056-057-062-063-064-067-068-090800-
SOUTH CENTRAL WISCONSIN

CITY           SKY/WX    TMP DP  RH WIND       PRES   REMARKS
REEDSBURG      FLURRIES  12   7  79 NW13G18   29.82R WCI  -3
BARABOO/DELLS  LGT SNOW  13   8  81 NW12      29.80S WCI  -1
LONE ROCK      FLURRIES  14   6  70 NW12      29.84S WCI   0
MINERAL POINT  LGT SNOW  16  12  86 NW12      29.79S WCI   3
MADISON        LGT SNOW  14   9  80 NW12      29.78S WCI   0
MIDDLETON      CLOUDY    16  11  83 NW12      29.79S WCI   2
WATERTOWN      LGT SNOW  15  14  94 NW9       29.75F WCI   3
MONROE         LGT SNOW  16  12  86 NW14      29.77S WCI   1
JANESVILLE     CLOUDY    19  12  73 N13       29.77F WCI   7
$$

WIZ051-052-058>065-066-070>072-090800-
SOUTHEAST WISCONSIN

CITY           SKY/WX    TMP DP  RH WIND       PRES   REMARKS
MILWAUKEE      FLURRIES  19  13  77 NW14      29.72F WCI   6
WAUKESHA       FLURRIES  16  12  86 NW10G16   29.74S WCI   3
MILWAUKEE/TIMM LGT SNOW  19  12  73 NW12      29.74S WCI   7
RACINE         LGT SNOW  19  13  77 NW12G18   29.73S WCI   7
BURLINGTON     LGT SNOW  16  11  82 NW10      29.74S WCI   3
KENOSHA        LGT SNOW  19  13  77 NW10G24   29.72S WCI   7
FOND DU LAC    FLURRIES  18  12  77 N16       29.75S WCI   3
SHEBOYGAN      LGT SNOW  19  14  81 N7        29.72S WCI  10
WEST BEND      FLURRIES  18  14  86 NW10G16   29.72F WCI   6
JUNEAU         LGT SNOW  15  11  85 NW8       29.76S WCI   4
$$

LSZ147-162-090800-
LAKE SUPERIOR

STATION/POSITION TIME  TEMP    WIND        PRES    WAVE
                       AIR SEA DIR/SP/G            HT/PER
                 (UTC) (F)     (DEG/KT/KT) (MB)    (FT/S)
DEVILS ISLAND    0600   14     350/ 23/ 25 1014.7R
PORT WING        0627   13     330/ 21/ 26 1014.9R
SAXON HARBOR     0640   16                 1011.9S
$$

LMZ867-665-643>646-090800-
LAKE MICHIGAN

STATION/POSITION TIME  TEMP    WIND        PRES    WAVE
                       AIR SEA DIR/SP/G            HT/PER
                 (UTC) (F)     (DEG/KT/KT) (MB)    (FT/S)
CHAMBERS ISLAND  0600   17     320/ 17/ 21 1007.5S
NORTHPORT PIER   0604   18     330/ 18     1006.8F
ALGOMA LAKESHORE 0641          340/ 11/ 15   N/A
KEWAUNEE LAKESHO 0600   18     350/ 11/ 14 1006.5S
SHEBOYGAN LAKESH 0600   20     330/ 13/ 15 1008.0R
PORT WASHINGTON  0600   21     320/  6/ 10 1008.1R
MILWAUKEE LAKESH 0610   20     320/ 12/ 14   N/A
KENOSHA   LAKESH 0600   19     300/ 16/ 21 1006.4F
$$

TC  - TEMPERATURE IN CELSIUS
VSB - VISIBILITY IN STATUTE MILES
WCI - WIND CHILL INDEX
HX  - HEAT INDEX





USA.gov is the U.S. government's official web portal to all federal, state and local government web resources and services.